When you browse on this site, cookies collect data to enhance your experience and personalize the content and advertising you see.
Visit our Privacy Policy to learn more. By continuing to use the site, you agree to this use of cookies and data.
  • In United Kingdom
  • List of Countries
  • For 7 days
  • Water Temperature
  • Weather Map
  • Weather Widgets
  • user-avatar
    Login

    Hourly Weather Zastarincy

    Today, 22 February, Saturday

    Time Temperature Precipitation Wind Pressure Humidity
    00:00 0°C° 0 mm 5 mps 750 mmHg 88%
    01:00 0°C° 0 mm 4 mps 751 mmHg 89%
    02:00 0°C° 0 mm 4 mps 751 mmHg 90%
    03:00 0°C° 0 mm 4 mps 751 mmHg 91%
    04:00 -1°C° 0 mm 4 mps 751 mmHg 91%
    05:00 -1°C° 0 mm 5 mps 751 mmHg 91%
    06:00 -1°C° 0 mm 5 mps 751 mmHg 90%
    07:00 0°C° 0 mm 5 mps 751 mmHg 88%
    08:00 0°C° 0 mm 5 mps 751 mmHg 87%
    09:00 -1°C° 0 mm 6 mps 750 mmHg 84%
    10:00 +1°C° 0 mm 6 mps 750 mmHg 80%
    11:00 0°C° 0 mm 7 mps 749 mmHg 77%
    12:00 +2°C° 0 mm 7 mps 748 mmHg 72%
    13:00 +2°C° 0 mm 8 mps 748 mmHg 68%
    14:00 +2°C° 0 mm 9 mps 747 mmHg 63%
    15:00 +2°C° 0.1 mm 9 mps 745 mmHg 66%
    16:00 +2°C° 0.1 mm 9 mps 744 mmHg 69%
    17:00 +1°C° 0.1 mm 9 mps 743 mmHg 72%
    18:00 +1°C° 0.6 mm 9 mps 742 mmHg 77%
    19:00 +1°C° 0.6 mm 10 mps 740 mmHg 81%
    20:00 -1°C° 0.6 mm 11 mps 739 mmHg 86%
    21:00 +1°C° 0.3 mm 10 mps 738 mmHg 86%
    22:00 +1°C° 0.3 mm 10 mps 737 mmHg 86%
    23:00 +2°C° 0.3 mm 9 mps 736 mmHg 87%

    Tomorrow, 23 February, Sunday

    Time Temperature Precipitation Wind Pressure Humidity
    00:00 +2°C° 0.4 mm 9 mps 735 mmHg 86%
    01:00 +1°C° 0.4 mm 9 mps 735 mmHg 85%
    02:00 +1°C° 0.4 mm 9 mps 735 mmHg 84%
    03:00 +1°C° 0.2 mm 8 mps 735 mmHg 80%
    04:00 0°C° 0.2 mm 7 mps 734 mmHg 77%
    05:00 0°C° 0.2 mm 7 mps 734 mmHg 74%
    06:00 -1°C° 0 mm 6 mps 735 mmHg 75%
    07:00 -1°C° 0 mm 6 mps 735 mmHg 75%
    08:00 -1°C° 0 mm 6 mps 735 mmHg 76%
    09:00 -1°C° 0 mm 7 mps 735 mmHg 74%
    10:00 0°C° 0 mm 7 mps 735 mmHg 72%
    11:00 0°C° 0 mm 8 mps 735 mmHg 70%
    12:00 0°C° 0.1 mm 8 mps 735 mmHg 73%
    13:00 0°C° 0.1 mm 9 mps 735 mmHg 75%
    14:00 0°C° 0.1 mm 9 mps 735 mmHg 78%
    15:00 0°C° 0.1 mm 9 mps 734 mmHg 82%
    16:00 -1°C° 0.1 mm 9 mps 734 mmHg 87%
    17:00 -1°C° 0.1 mm 9 mps 733 mmHg 92%
    18:00 -1°C° 0.1 mm 8 mps 733 mmHg 91%
    19:00 -1°C° 0.1 mm 8 mps 733 mmHg 89%
    20:00 -1°C° 0.1 mm 8 mps 733 mmHg 88%
    21:00 -1°C° 0 mm 7 mps 733 mmHg 88%
    22:00 -1°C° 0 mm 6 mps 733 mmHg 88%
    23:00 -1°C° 0 mm 6 mps 732 mmHg 88%

    Day after tomorrow, 24 February, Monday

    Time Temperature Precipitation Wind Pressure Humidity
    00:00 0°C° 0.1 mm 5 mps 732 mmHg 89%
    01:00 -1°C° 0.1 mm 5 mps 733 mmHg 91%
    02:00 -1°C° 0.1 mm 5 mps 733 mmHg 92%
    03:00 -1°C° 0 mm 5 mps 733 mmHg 90%
    04:00 -1°C° 0 mm 5 mps 733 mmHg 89%
    05:00 -1°C° 0 mm 5 mps 733 mmHg 87%
    06:00 -1°C° 0 mm 5 mps 734 mmHg 85%
    07:00 -1°C° 0 mm 5 mps 735 mmHg 82%
    08:00 -1°C° 0 mm 5 mps 736 mmHg 80%
    09:00 -1°C° 0 mm 6 mps 737 mmHg 73%
    10:00 -1°C° 0 mm 7 mps 738 mmHg 65%
    11:00 0°C° 0 mm 7 mps 739 mmHg 58%
    12:00 0°C° 0 mm 7 mps 739 mmHg 56%
    13:00 0°C° 0 mm 7 mps 740 mmHg 54%
    14:00 0°C° 0 mm 7 mps 741 mmHg 53%
    15:00 0°C° 0 mm 7 mps 741 mmHg 55%
    16:00 -1°C° 0 mm 6 mps 742 mmHg 58%
    17:00 -1°C° 0 mm 6 mps 742 mmHg 61%
    18:00 -1°C° 0 mm 5 mps 743 mmHg 64%
    19:00 -1°C° 0 mm 5 mps 743 mmHg 66%
    20:00 -2°C° 0 mm 4 mps 744 mmHg 69%
    21:00 -2°C° 0 mm 4 mps 743 mmHg 71%
    22:00 -1°C° 0 mm 3 mps 743 mmHg 73%
    23:00 -1°C° 0 mm 3 mps 743 mmHg 74%

    25 February, Tuesday

    Time Temperature Precipitation Wind Pressure Humidity
    00:00 -1°C° 0 mm 3 mps 743 mmHg 75%
    01:00 -2°C° 0 mm 2 mps 743 mmHg 75%
    02:00 -2°C° 0 mm 2 mps 743 mmHg 75%
    03:00 -2°C° 0 mm 2 mps 742 mmHg 77%
    04:00 -2°C° 0 mm 2 mps 742 mmHg 79%
    05:00 -2°C° 0 mm 2 mps 741 mmHg 81%
    06:00 -2°C° 0.2 mm 3 mps 740 mmHg 85%
    07:00 -1°C° 0.2 mm 3 mps 740 mmHg 89%
    08:00 -1°C° 0.2 mm 3 mps 739 mmHg 93%
    09:00 -2°C° 0.1 mm 4 mps 739 mmHg 93%
    10:00 -1°C° 0.1 mm 4 mps 738 mmHg 94%
    11:00 -1°C° 0.1 mm 5 mps 737 mmHg 94%
    12:00 -1°C° 0.4 mm 5 mps 736 mmHg 95%
    13:00 -2°C° 0.4 mm 6 mps 736 mmHg 95%
    14:00 -2°C° 0.4 mm 6 mps 735 mmHg 95%
    15:00 -1°C° 0.2 mm 6 mps 734 mmHg 95%
    16:00 0°C° 0.2 mm 5 mps 733 mmHg 94%
    17:00 +1°C° 0.2 mm 4 mps 733 mmHg 94%
    18:00 +1°C° 0 mm 4 mps 733 mmHg 94%
    19:00 0°C° 0 mm 4 mps 733 mmHg 93%
    20:00 0°C° 0 mm 4 mps 732 mmHg 93%
    21:00 0°C° 0 mm 4 mps 732 mmHg 93%
    22:00 -1°C° 0 mm 4 mps 732 mmHg 94%
    23:00 -1°C° 0 mm 4 mps 732 mmHg 94%

    26 February, Wednesday

    Time Temperature Precipitation Wind Pressure Humidity
    00:00 0°C° 0 mm 3 mps 731 mmHg 95%
    01:00 0°C° 0 mm 3 mps 731 mmHg 96%
    02:00 0°C° 0 mm 3 mps 731 mmHg 97%
    03:00 0°C° 0.2 mm 3 mps 731 mmHg 95%
    04:00 -1°C° 0.2 mm 4 mps 730 mmHg 92%
    05:00 -1°C° 0.2 mm 5 mps 730 mmHg 90%
    06:00 -1°C° 0 mm 5 mps 730 mmHg 87%
    07:00 -1°C° 0 mm 5 mps 730 mmHg 84%
    08:00 0°C° 0 mm 5 mps 730 mmHg 81%
    09:00 -1°C° 0 mm 6 mps 730 mmHg 80%
    10:00 -1°C° 0 mm 6 mps 731 mmHg 79%
    11:00 -1°C° 0 mm 7 mps 731 mmHg 78%
    12:00 -1°C° 0 mm 6 mps 731 mmHg 76%
    13:00 +1°C° 0 mm 6 mps 731 mmHg 74%
    14:00 +1°C° 0 mm 6 mps 732 mmHg 72%
    15:00 +1°C° 0 mm 5 mps 732 mmHg 73%
    16:00 +1°C° 0 mm 4 mps 732 mmHg 73%
    17:00 0°C° 0 mm 4 mps 733 mmHg 73%
    18:00 +1°C° 0 mm 3 mps 733 mmHg 75%
    19:00 0°C° 0 mm 3 mps 733 mmHg 78%
    20:00 +1°C° 0 mm 2 mps 734 mmHg 80%
    21:00 -1°C° 0 mm 2 mps 734 mmHg 82%
    22:00 -1°C° 0 mm 2 mps 734 mmHg 84%
    23:00 -1°C° 0 mm 2 mps 734 mmHg 87%

    27 February, Thursday

    Time Temperature Precipitation Wind Pressure Humidity
    00:00 -1°C° 0 mm 2 mps 733 mmHg 89%
    01:00 -1°C° 0 mm 2 mps 733 mmHg 91%
    02:00 -1°C° 0 mm 2 mps 733 mmHg 93%
    03:00 -1°C° 0 mm 2 mps 732 mmHg 92%
    04:00 -1°C° 0 mm 2 mps 732 mmHg 92%
    05:00 -1°C° 0 mm 3 mps 732 mmHg 91%
    06:00 0°C° 0.9 mm 3 mps 732 mmHg 93%
    07:00 0°C° 0.9 mm 3 mps 732 mmHg 95%
    08:00 0°C° 0.9 mm 3 mps 732 mmHg 97%
    09:00 0°C° 0.2 mm 3 mps 732 mmHg 93%
    10:00 +1°C° 0.2 mm 3 mps 732 mmHg 89%
    11:00 +1°C° 0.2 mm 3 mps 732 mmHg 86%
    12:00 +1°C° 0.1 mm 3 mps 732 mmHg 86%
    13:00 0°C° 0.1 mm 4 mps 732 mmHg 87%
    14:00 0°C° 0.1 mm 4 mps 732 mmHg 87%
    15:00 0°C° 0.1 mm 4 mps 733 mmHg 87%
    16:00 -1°C° 0.1 mm 5 mps 734 mmHg 88%
    17:00 -1°C° 0.1 mm 5 mps 734 mmHg 88%
    18:00 -2°C° 0.1 mm 5 mps 735 mmHg 88%
    19:00 -2°C° 0.1 mm 5 mps 736 mmHg 88%
    20:00 -4°C° 0.1 mm 5 mps 737 mmHg 88%
    21:00 -5°C° 0 mm 5 mps 738 mmHg 86%
    22:00 -6°C° 0 mm 5 mps 738 mmHg 84%
    23:00 -7°C° 0 mm 5 mps 739 mmHg 81%
    Show more